Weather History for Rickenbacker, OH

Change the Weather History Date:

Saturday, November 26, 2011

  Actual Average Record
Temperature  
Mean Temperature 54 °F -  
Max Temperature 65 °F 47 °F 68 °F (2006)
Min Temperature 43 °F 32 °F 26 °F (2004)
Degree Days  
Heating Degree Days 11    
Growing Degree Days 4 (Base 50)    
Moisture  
Dew Point 36 °F    
Average Humidity 49    
Maximum Humidity 58    
Minimum Humidity 40    
Precipitation  
Precipitation 0.00 in - - ()
Sea Level Pressure  
Sea Level Pressure 30.11 in    
Wind  
Wind Speed 8 mph (South)    
Max Wind Speed 14 mph    
Max Gust Speed 23 mph    
Visibility 10 miles    
Events      
Averages and records for this station are not official NWS values.
T = Trace of Precipitation, MM = Missing Value Source: NWS Daily Summary

Daily Weather History Graph

Daily Weather History Graph

Search for Another Location

Airport:

Trip Planner

Search our weather history database for the weather conditions in past years. The results will help you decide how hot, cold, wet, or windy it might be!

Date:

Astronomy

Nov. 26, 2011 Rise Set
Actual Time 7:28 AM EST 5:09 PM EST
Civil Twilight 6:58 AM EST 5:38 PM EST
Nautical Twilight 6:25 AM EST 6:12 PM EST
Astronomical Twilight 5:53 AM EST 6:44 PM EST
Moon 8:58 AM EST (11/26) 6:39 PM EST (11/26)
Length of Visible Light 10h 40m
Length of Day
9h 40m
Waxing Crescent, 3% of the Moon is Illuminated
Nov 26
Waxing Crescent
Dec 2
First Quarter
Dec 10
Full
Dec 17
Last Quarter
Dec 24
New

Hourly Weather History & Observations

Time (EST) Temp. Windchill Dew Point Humidity Pressure Visibility Wind Dir Wind Speed Gust Speed Precip Events Conditions
12:15 AM 47.5 °F - 27.3 °F 46% 30.13 in 10.0 mi SSE 3.5 mph - N/A   Clear
12:35 AM 46.9 °F - 27.1 °F 46% 30.13 in 10.0 mi Calm Calm - N/A   Clear
12:55 AM 46.4 °F 44.3 °F 26.6 °F 46% 30.13 in 10.0 mi SSW 4.6 mph - N/A   Clear
1:35 AM 44.1 °F 41.5 °F 28.8 °F 55% 30.13 in 10.0 mi SSW 4.6 mph - N/A   Clear
1:55 AM 43.9 °F 39.3 °F 28.9 °F 56% 30.13 in 10.0 mi South 8.1 mph - N/A   Clear
2:15 AM 44.4 °F 40.0 °F 28.9 °F 55% 30.14 in 10.0 mi South 8.1 mph - N/A   Clear
2:35 AM 45.1 °F 40.8 °F 29.3 °F 54% 30.14 in 10.0 mi South 8.1 mph - N/A   Clear
2:55 AM 46.0 °F 41.9 °F 29.7 °F 53% 30.15 in 10.0 mi South 8.1 mph - N/A   Clear
3:15 AM 46.6 °F - 29.3 °F 51% 30.15 in 10.0 mi SSW 8.1 mph - N/A   Clear
3:35 AM 46.4 °F 42.4 °F 29.3 °F 51% 30.15 in 10.0 mi South 8.1 mph - N/A   Clear
3:55 AM 46.9 °F - 29.1 °F 50% 30.15 in 10.0 mi South 8.1 mph - N/A   Clear
4:15 AM 47.3 °F - 29.3 °F 50% 30.15 in 10.0 mi South 9.2 mph - N/A   Clear
4:35 AM 47.8 °F - 29.7 °F 49% 30.15 in 10.0 mi South 9.2 mph - N/A   Clear
4:55 AM 48.0 °F - 29.8 °F 49% 30.15 in 10.0 mi South 9.2 mph - N/A   Clear
5:15 AM 47.3 °F - 30.2 °F 52% 30.15 in 10.0 mi South 6.9 mph - N/A   Clear
5:35 AM 46.9 °F - 30.0 °F 52% 30.15 in 10.0 mi South 8.1 mph - N/A   Clear
5:55 AM 47.8 °F - 30.0 °F 50% 30.14 in 10.0 mi South 10.4 mph - N/A   Clear
6:15 AM 48.7 °F - 30.2 °F 49% 30.15 in 10.0 mi South 10.4 mph - N/A   Clear
6:35 AM 49.5 °F - 30.6 °F 48% 30.15 in 10.0 mi South 9.2 mph - N/A   Clear
6:55 AM 49.6 °F - 31.5 °F 50% 30.16 in 10.0 mi South 9.2 mph - N/A   Clear
7:15 AM 49.8 °F - 31.8 °F 50% 30.16 in 10.0 mi South 9.2 mph - N/A   Clear
7:35 AM 50.0 °F - 32.0 °F 50% 30.17 in 10.0 mi South 8.1 mph - N/A   Clear
7:55 AM 48.9 °F - 32.2 °F 52% 30.17 in 10.0 mi South 6.9 mph - N/A   Clear
8:15 AM 48.2 °F - 32.9 °F 55% 30.17 in 10.0 mi South 6.9 mph - N/A   Scattered Clouds
8:35 AM 49.5 °F - 34.2 °F 56% 30.17 in 10.0 mi South 6.9 mph - N/A   Mostly Cloudy
8:55 AM 51.3 °F - 35.4 °F 55% 30.17 in 10.0 mi South 5.8 mph - N/A   Scattered Clouds
9:15 AM 52.2 °F - 36.5 °F 55% 30.16 in 10.0 mi South 8.1 mph - N/A   Clear
9:35 AM 54.0 °F - 36.7 °F 52% 30.16 in 10.0 mi South 9.2 mph - N/A   Clear
9:55 AM 55.4 °F - 36.5 °F 49% 30.16 in 10.0 mi South 11.5 mph - N/A   Clear
10:15 AM 56.3 °F - 36.7 °F 48% 30.17 in 10.0 mi South 12.7 mph 17.3 mph N/A   Scattered Clouds
10:35 AM 57.9 °F - 37.8 °F 47% 30.16 in 10.0 mi South 9.2 mph - N/A   Scattered Clouds
10:55 AM 59.5 °F - 38.3 °F 45% 30.16 in 10.0 mi South 11.5 mph - N/A   Clear
11:15 AM 59.9 °F - 39.0 °F 46% 30.16 in 10.0 mi SSW 10.4 mph - N/A   Mostly Cloudy
11:35 AM 60.3 °F - 39.2 °F 46% 30.15 in 10.0 mi South 9.2 mph - N/A   Scattered Clouds
11:55 AM 61.0 °F - 38.7 °F 44% 30.14 in 10.0 mi South 12.7 mph 16.1 mph N/A   Clear
12:15 PM 61.2 °F - 39.6 °F 45% 30.14 in 10.0 mi South 8.1 mph - N/A   Mostly Cloudy
12:35 PM 61.3 °F - 39.7 °F 45% 30.13 in 10.0 mi South 10.4 mph - N/A   Mostly Cloudy
12:55 PM 61.2 °F - 39.4 °F 45% 30.12 in 10.0 mi South 11.5 mph - N/A   Mostly Cloudy
1:15 PM 61.9 °F - 39.6 °F 44% 30.11 in 10.0 mi South 10.4 mph - N/A   Scattered Clouds
1:35 PM 62.6 °F - 39.7 °F 43% 30.10 in 10.0 mi SSE 12.7 mph - N/A   Scattered Clouds
1:55 PM 62.8 °F - 40.3 °F 44% 30.09 in 10.0 mi South 11.5 mph - N/A   Overcast
2:15 PM 63.3 °F - 40.8 °F 44% 30.08 in 10.0 mi South 11.5 mph - N/A   Scattered Clouds
2:35 PM 63.9 °F - 40.8 °F 43% 30.07 in 10.0 mi SSE 9.2 mph - N/A   Mostly Cloudy
2:55 PM 64.6 °F - 41.5 °F 43% 30.06 in 10.0 mi South 12.7 mph - N/A   Mostly Cloudy
3:15 PM 65.3 °F - 40.5 °F 40% 30.06 in 10.0 mi South 11.5 mph 23.0 mph N/A   Scattered Clouds
3:35 PM 64.4 °F - 41.0 °F 42% 30.06 in 10.0 mi SSW 13.8 mph - N/A   Clear
3:55 PM 64.6 °F - 40.3 °F 41% 30.05 in 10.0 mi South 11.5 mph - N/A   Clear
4:15 PM 64.8 °F - 40.1 °F 40% 30.05 in 10.0 mi South 13.8 mph 17.3 mph N/A   Clear
4:35 PM 63.7 °F - 40.1 °F 42% 30.05 in 10.0 mi SSW 11.5 mph - N/A   Clear
4:55 PM 61.7 °F - 40.8 °F 46% 30.05 in 10.0 mi South 10.4 mph - N/A   Clear
5:15 PM 61.0 °F - 41.0 °F 48% 30.05 in 10.0 mi South 9.2 mph - N/A   Clear
5:35 PM 59.2 °F - 41.4 °F 52% 30.04 in 10.0 mi SSE 8.1 mph - N/A   Clear
5:55 PM 58.6 °F - 40.8 °F 52% 30.03 in 10.0 mi SSE 8.1 mph - N/A   Clear
6:15 PM 59.0 °F - 41.0 °F 51% 30.03 in 10.0 mi SSE 9.2 mph - N/A   Clear
6:35 PM 58.5 °F - 40.8 °F 52% 30.03 in 10.0 mi SSE 8.1 mph - N/A   Clear
6:55 PM 57.2 °F - 41.0 °F 55% 30.02 in 10.0 mi SSE 9.2 mph - N/A   Clear
7:15 PM 58.3 °F - 40.6 °F 52% 30.01 in 10.0 mi SSE 9.2 mph - N/A   Clear
7:35 PM 58.5 °F - 40.8 °F 52% 30.01 in 10.0 mi SSE 9.2 mph - N/A   Clear
7:55 PM 58.5 °F - 40.8 °F 52% 30.00 in 10.0 mi SSE 9.2 mph - N/A   Clear
8:15 PM 58.1 °F - 41.0 °F 53% 29.99 in 10.0 mi SSE 9.2 mph - N/A   Clear
8:35 PM 57.9 °F - 41.0 °F 53% 30.00 in 10.0 mi SSE 9.2 mph - N/A   Clear
8:55 PM 57.2 °F - 41.0 °F 55% 30.00 in 10.0 mi SSE 5.8 mph - N/A   Clear
9:15 PM 55.2 °F - 40.8 °F 58% 30.00 in 10.0 mi SSE 5.8 mph - N/A   Clear
9:35 PM 54.9 °F - 40.5 °F 58% 29.99 in 10.0 mi SSE 6.9 mph - N/A   Clear
9:55 PM 54.9 °F - 41.0 °F 60% 29.99 in 10.0 mi SSE 9.2 mph - N/A   Clear
10:15 PM 56.1 °F - 41.5 °F 58% 29.99 in 10.0 mi SSE 10.4 mph - N/A   Clear
10:35 PM 55.9 °F - 41.5 °F 58% 29.98 in 10.0 mi SSE 9.2 mph - N/A   Clear
11:15 PM 56.3 °F - 41.5 °F 58% 29.98 in 10.0 mi SSE 8.1 mph - N/A   Clear
11:35 PM 56.7 °F - 41.4 °F 57% 29.98 in 10.0 mi SSE 9.2 mph - N/A   Clear
11:55 PM 56.3 °F - 41.4 °F 57% 29.97 in 10.0 mi South 8.1 mph - N/A   Clear